Location: B�hl
(48.6968°N, 8.1352°E)
Time: 11:17:41
(UTC+00:00)

NOSS 3-2 (A) - Pass Details

Date: 08 March 2021
Orbit: 780 x 1427 km, 63.4° (Epoch: 31 March)

Event Time Altitude Azimuth Distance (km) Brightness Sun altitude
Rises 18:15:17 0° 185° (S) 3,308 6.3 -9.6°
Reaches altitude 10° 18:17:49 10° 175° (S) 2,429 5.5 -10.0°
Maximum altitude 18:22:41 32° 114° (ESE) 1,498 4.0 -10.8°
Drops below altitude 10° 18:28:08 10° 54° (NE) 2,742 5.4 -11.7°
Sets 18:31:10 0° 46° (NE) 3,804 6.2 -12.2°
